Weather in Dunhua

China     43°21′37″N   128°14′42″E
temp.,
°C
wind,
m/s
gust,
m/s
humid.,
%
clouds,
%
prec.,
mm/h
press.,
hPa
HPBL,
m
13 april, tue
tue1323:00+7wsw5876100 0.1 1009908
02:000nw71279100 0.8 1011609
05:00−3wnw71267100 0.1 1013810
08:00−2nw9125043 0.1 10141211
11:00+1wnw912285 0.0 10141931
14:00+2wnw811235 0.0 10122161
17:00+1wnw7102815 0.0 10132061
20:00−2wnw510413 0.0 10161332
14 april, wed
wed1423:00−4wsw374813 0.0 1016206
02:00−5ssw2247100 0.0 101527
05:00−3wsw3841100 0.0 1013475
08:00+1w71042100 0.1 10131698
11:00+5wnw6927100 0.0 10123037
14:00+7wnw8102015 0.0 10102842
17:00+6wnw5102494 0.0 10122336
20:00+2wsw38310 0.0 1015188
15 april, thu
thu1523:000ssw37360 0.0 1015115
02:00+1ssw412324 0.0 1014300
05:00+1ssw4123538 0.0 1013280
08:00+8sw61224100 0.0 1012784
11:00+13sw81121100 0.0 10091410
14:00+16sw71019100 0.0 10072617
17:00+14sw6102531 0.0 10071395
20:00+10ssw6134088 0.0 1009653
16 april, fri
fri1623:00+7ssw4114998 0.0 1007376
02:00+6se3557100 0.0 1004130
05:00+4se2676100 0.4 1002271
08:00+7se4953100 0.8 999976
11:00+10sw91443100 0.3 9972217
14:00+7sw91654100 0.7 9981745
17:00+7wsw9185099 0.0 9982135
20:00+2wsw81665100 0.1 10021479
17 april, sat
sat1723:00+1sw6127499 0.0 10031240
02:000sw5138499 0.1 10041174
05:000wsw61277100 0.4 10041143
08:00+3wsw6861100 0.4 10051114
11:00+4w6762100 0.1 10071214
14:00+4wnw686877 0.4 10081080
17:00+2w51086100 0.1 1012788
20:00+1w498094 0.3 1014654